Weather History for Dublin, VA

Change the Weather History Date:

Saturday, March 2, 2013

  Actual Average (KBCB) Record (KBCB)
Temperature  
Mean Temperature 29 °F 38 °F  
Max Temperature 32 °F 49 °F 72 °F (1976)
Min Temperature 24 °F 26 °F 7 °F (1980)
Degree Days  
Heating Degree Days 36 27  
Month to date heating degree days 55  
Since 1 July heating degree days 4103  
Cooling Degree Days 0 0  
Month to date cooling degree days 0  
Year to date cooling degree days 0  
Moisture  
Dew Point 20 °F    
Average Humidity 70    
Maximum Humidity 80    
Minimum Humidity 64    
Precipitation  
Precipitation 0.00 in 0.10 in 1.09 in (1994)
Month to date precipitation 0.19  
Year to date precipitation 6.08  
Snow  
Snow 0.00 in - - ()
Month to date snowfall  
Since 1 July snowfall  
Snow Depth -    
Sea Level Pressure  
Sea Level Pressure 29.87 in    
Wind  
Wind Speed 6 mph (NW)    
Max Wind Speed 15 mph    
Max Gust Speed 21 mph    
Visibility 10 miles    
Events Snow    
T = Trace of Precipitation, MM = Missing Value Source: NWS Daily Summary

Daily Weather History Graph

Daily Weather History Graph

Search for Another Location

Airport:

Trip Planner

Search our weather history database for the weather conditions in past years. The results will help you decide how hot, cold, wet, or windy it might be!

Date:

Astronomy

Mar. 02, 2013 Rise Set
Actual Time 6:52 AM EST 6:18 PM EST
Civil Twilight 6:25 AM EST 6:44 PM EST
Nautical Twilight 5:55 AM EST 7:14 PM EST
Astronomical Twilight 5:25 AM EST 7:44 PM EST
Moon 11:47 PM EST (3/2) 9:27 AM EST (3/2)
Length of Visible Light 12h 18m
Length of Day
11h 26m
Waning Gibbous, 74% of the Moon is Illuminated
Mar 2
Waning Gibbous
Mar 4
Last Quarter
Mar 11
New
Mar 19
First Quarter
Mar 27
Full

Hourly Weather History & Observations

Time (EST) Temp. Windchill Dew Point Humidity Pressure Visibility Wind Dir Wind Speed Gust Speed Precip Events Conditions
12:35 AM 32.0 °F 27.5 °F 23.0 °F 69% 29.88 in 10.0 mi North 4.6 mph - N/A   Overcast
12:55 AM 32.0 °F 27.5 °F 21.2 °F 64% 29.88 in 10.0 mi NW 4.6 mph - N/A   Overcast
1:15 AM 32.0 °F 28.7 °F 23.0 °F 69% 29.88 in 10.0 mi NNW 3.5 mph - N/A   Overcast
1:35 AM 30.2 °F 24.3 °F 23.0 °F 75% 29.88 in 10.0 mi NNW 5.8 mph - N/A   Overcast
1:55 AM 30.2 °F 23.4 °F 21.2 °F 69% 29.87 in 10.0 mi NNW 6.9 mph - N/A   Overcast
2:15 AM 30.2 °F 25.4 °F 23.0 °F 75% 29.87 in 10.0 mi NW 4.6 mph - N/A   Overcast
2:35 AM 30.2 °F 25.4 °F 23.0 °F 75% 29.87 in 10.0 mi NW 4.6 mph - N/A   Overcast
2:55 AM 30.2 °F - 23.0 °F 75% 29.87 in 10.0 mi Calm Calm - N/A   Overcast
3:15 AM 30.2 °F - 24.8 °F 80% 29.87 in 10.0 mi Calm Calm - N/A   Overcast
3:35 AM 30.2 °F 23.4 °F 24.8 °F 80% 29.86 in 10.0 mi WNW 6.9 mph - N/A   Overcast
3:55 AM 30.2 °F 25.4 °F 24.8 °F 80% 29.85 in 10.0 mi WNW 4.6 mph - N/A   Overcast
4:15 AM 30.2 °F 22.6 °F 23.0 °F 75% 29.84 in 10.0 mi WNW 8.1 mph - N/A   Overcast
4:35 AM 30.2 °F 25.4 °F 23.0 °F 75% 29.84 in 10.0 mi NW 4.6 mph - N/A   Overcast
4:55 AM 30.2 °F 25.4 °F 23.0 °F 75% 29.84 in 10.0 mi North 4.6 mph - N/A   Overcast
5:15 AM 30.2 °F 25.4 °F 23.0 °F 75% 29.84 in 10.0 mi North 4.6 mph - N/A   Overcast
5:35 AM 30.2 °F 25.4 °F 23.0 °F 75% 29.84 in 10.0 mi NNW 4.6 mph - N/A   Overcast
5:55 AM 30.2 °F 25.4 °F 23.0 °F 75% 29.84 in 10.0 mi North 4.6 mph - N/A   Overcast
6:15 AM 30.2 °F 24.3 °F 23.0 °F 75% 29.84 in 10.0 mi NNW 5.8 mph - N/A   Overcast
6:35 AM 30.2 °F 26.7 °F 23.0 °F 75% 29.84 in 10.0 mi North 3.5 mph - N/A   Overcast
6:55 AM 30.2 °F 25.4 °F 23.0 °F 75% 29.85 in 10.0 mi NNW 4.6 mph - N/A   Overcast
7:15 AM 30.2 °F 26.7 °F 23.0 °F 75% 29.85 in 10.0 mi NNW 3.5 mph - N/A   Overcast
7:35 AM 28.4 °F 22.2 °F 21.2 °F 74% 29.86 in 10.0 mi NNW 5.8 mph - N/A   Overcast
7:55 AM 28.4 °F 23.3 °F 21.2 °F 74% 29.86 in 10.0 mi NNW 4.6 mph - N/A   Overcast
8:15 AM 30.2 °F 23.4 °F 21.2 °F 69% 29.86 in 10.0 mi NNW 6.9 mph - N/A   Overcast
8:35 AM 30.2 °F 25.4 °F 21.2 °F 69% 29.87 in 10.0 mi NNW 4.6 mph - N/A   Overcast
8:55 AM 30.2 °F 23.4 °F 21.2 °F 69% 29.87 in 10.0 mi NW 6.9 mph - N/A   Overcast
9:15 AM 30.2 °F 23.4 °F 21.2 °F 69% 29.86 in 10.0 mi NNW 6.9 mph - N/A   Overcast
9:35 AM 30.2 °F 23.4 °F 21.2 °F 69% 29.86 in 10.0 mi NNW 6.9 mph - N/A   Overcast
9:55 AM 28.4 °F 22.2 °F 23.0 °F 80% 29.86 in 10.0 mi North 5.8 mph - N/A   Overcast
10:15 AM 28.4 °F 24.6 °F 23.0 °F 80% 29.86 in 10.0 mi NNW 3.5 mph - N/A   Overcast
10:35 AM 30.2 °F 26.7 °F 23.0 °F 75% 29.86 in 10.0 mi North 3.5 mph - N/A   Overcast
10:55 AM 30.2 °F 24.3 °F 21.2 °F 69% 29.86 in 10.0 mi NNW 5.8 mph - N/A   Overcast
11:15 AM 30.2 °F 21.3 °F 21.2 °F 69% 29.86 in 10.0 mi NW 10.4 mph - N/A   Overcast
11:35 AM 30.2 °F 20.2 °F 21.2 °F 69% 29.86 in 10.0 mi WNW 12.7 mph - N/A   Overcast
11:55 AM 30.2 °F 20.2 °F 21.2 °F 69% 29.86 in 10.0 mi West 12.7 mph 17.3 mph N/A   Overcast
12:15 PM 30.2 °F 20.8 °F 19.4 °F 64% 29.86 in 10.0 mi NW 11.5 mph 17.3 mph N/A   Overcast
12:35 PM 32.0 °F 23.6 °F 21.2 °F 64% 29.85 in 10.0 mi NW 10.4 mph 17.3 mph N/A   Overcast
12:55 PM 30.2 °F 21.9 °F 19.4 °F 64% 29.85 in 10.0 mi NW 9.2 mph 18.4 mph N/A   Overcast
1:15 PM 30.2 °F 20.2 °F 21.2 °F 69% 29.84 in 10.0 mi WNW 12.7 mph 17.3 mph N/A   Overcast
1:35 PM 30.2 °F 21.3 °F 19.4 °F 64% 29.84 in 10.0 mi NW 10.4 mph - N/A   Overcast
1:55 PM 30.2 °F 21.3 °F 21.2 °F 69% 29.84 in 10.0 mi NW 10.4 mph 16.1 mph N/A   Overcast
2:15 PM 30.2 °F 20.8 °F 19.4 °F 64% 29.84 in 10.0 mi WNW 11.5 mph - N/A   Overcast
2:35 PM 30.2 °F 20.2 °F 19.4 °F 64% 29.84 in 10.0 mi NW 12.7 mph 19.6 mph N/A   Overcast
2:55 PM 30.2 °F 19.3 °F 19.4 °F 64% 29.84 in 10.0 mi WNW 15.0 mph - N/A   Overcast
3:15 PM 30.2 °F 20.8 °F 19.4 °F 64% 29.84 in 10.0 mi NW 11.5 mph 16.1 mph N/A   Overcast
3:35 PM 30.2 °F 20.2 °F 19.4 °F 64% 29.84 in 10.0 mi WNW 12.7 mph - N/A   Overcast
3:55 PM 30.2 °F 19.8 °F 19.4 °F 64% 29.84 in 10.0 mi WNW 13.8 mph - N/A   Overcast
4:15 PM 28.4 °F 19.1 °F 19.4 °F 69% 29.85 in 10.0 mi NNW 10.4 mph - N/A   Overcast
4:35 PM 28.4 °F 19.7 °F 17.6 °F 64% 29.85 in 10.0 mi NW 9.2 mph 16.1 mph N/A   Overcast
4:55 PM 28.4 °F 19.7 °F 17.6 °F 64% 29.85 in 10.0 mi NW 9.2 mph - N/A   Overcast
5:15 PM 28.4 °F 19.1 °F 17.6 °F 64% 29.86 in 10.0 mi WNW 10.4 mph - N/A   Overcast
5:35 PM 28.4 °F 21.2 °F 19.4 °F 69% 29.86 in 10.0 mi NW 6.9 mph - N/A   Overcast
5:55 PM 28.4 °F 22.2 °F 17.6 °F 64% 29.87 in 10.0 mi WNW 5.8 mph - N/A   Overcast
6:15 PM 28.4 °F 23.3 °F 17.6 °F 64% 29.87 in 10.0 mi NW 4.6 mph - N/A   Overcast
6:35 PM 28.4 °F 20.4 °F 17.6 °F 64% 29.88 in 10.0 mi NNW 8.1 mph - N/A   Overcast
6:55 PM 28.4 °F 21.2 °F 17.6 °F 64% 29.89 in 10.0 mi NNW 6.9 mph - N/A Snow Light Snow
7:15 PM 28.4 °F 20.4 °F 17.6 °F 64% 29.89 in 10.0 mi NW 8.1 mph - N/A Snow Light Snow
7:35 PM 28.4 °F 21.2 °F 17.6 °F 64% 29.89 in 10.0 mi NW 6.9 mph - N/A   Overcast
7:55 PM 28.4 °F 19.1 °F 17.6 °F 64% 29.89 in 10.0 mi WNW 10.4 mph - N/A   Overcast
8:15 PM 28.4 °F 22.2 °F 17.6 °F 64% 29.89 in 10.0 mi NNW 5.8 mph - N/A   Overcast
8:35 PM 26.6 °F 17.5 °F 17.6 °F 69% 29.90 in 10.0 mi NNW 9.2 mph - N/A Snow Light Snow
8:55 PM 26.6 °F 18.2 °F 17.6 °F 69% 29.90 in 10.0 mi NNW 8.1 mph - N/A   Overcast
9:15 PM 26.6 °F 21.2 °F 19.4 °F 74% 29.91 in 10.0 mi NNW 4.6 mph - N/A Snow Light Snow
9:35 PM 26.6 °F 17.5 °F 19.4 °F 74% 29.91 in 10.0 mi NW 9.2 mph - N/A Snow Light Snow
9:55 PM 26.6 °F 20.0 °F 19.4 °F 74% 29.91 in 10.0 mi NW 5.8 mph - N/A Snow Light Snow
10:15 PM 26.6 °F 16.8 °F 17.6 °F 69% 29.91 in 10.0 mi NW 10.4 mph 16.1 mph N/A Snow Light Snow
10:35 PM 26.6 °F 16.8 °F 15.8 °F 64% 29.91 in 10.0 mi NNW 10.4 mph 20.7 mph N/A   Overcast
10:55 PM 26.6 °F 19.1 °F 15.8 °F 64% 29.90 in 10.0 mi NNW 6.9 mph - N/A Snow Light Snow
11:15 PM 26.6 °F 19.1 °F 17.6 °F 69% 29.90 in 10.0 mi NW 6.9 mph - N/A Snow Light Snow
11:35 PM 26.6 °F 17.5 °F 17.6 °F 69% 29.90 in 10.0 mi NW 9.2 mph - N/A Snow Light Snow
11:55 PM 24.8 °F 14.0 °F 17.6 °F 74% 29.90 in 7.0 mi NW 11.5 mph 16.1 mph N/A Snow Light Snow